Miscellaneous Local Product
Issued by NWS North Platte, NE

Home | Current Version | Previous Version | Graphics & Text | Print | Product List | Glossary On
Versions: 1 2 3 4 5 6 7 8 9 10 11 12 13 14 15 16 17 18 19 20 21 22 23 24 25 26 27 28 29 30 31 32 33 34 35 36 37 38 39 40 41 42 43 44 45 46 47 48 49 50
600
AXUS43 KLBF 221510
MISLBF


WESTERN AND NORTH CENTRAL NEBRASKA HOURLY WEATHER ROUNDUP
NATIONAL WEATHER SERVICE NORTH PLATTE NE
1000 AM CDT WED MAR 22 2017

NOTE: "FAIR" INDICATES FEW OR NO CLOUDS BELOW 12,000 FEET WITH NO
SIGNIFICANT WEATHER AND/OR OBSTRUCTIONS TO VISIBILITY.

NOTE: STATIONS NOT REPORTING VARIABLES SUCH AS SKY/WEATHER OR
PRESSURE ARE PROVIDED BY RAWS AND APRS NETWORKS AND ARE NOT UNDER
NATIONAL WEATHER SERVICE QUALITY CONTROL.

...OBSERVATIONS IN AND NEAR THE EASTERN PANHANDLE OF NEBRASKA...

CITY           SKY/WX    TMP DP  RH WIND       PRES   REMARKS
PINE RIDGE     CLOUDY    40  33  76 S33G46    29.97F WCI  28
CHADRON        CLOUDY    43  32  65 S17G32    29.97F
ALLIANCE       CLOUDY    36  31  82 S22G31    30.05S WCI  25
SIDNEY         CLOUDY    40  32  73 S26G33    30.08F WCI  29
CRESCENT LAKE    N/A     38  30  72 S17G28      N/A  WCI  28
$$

...OBSERVATIONS IN NORTHERN NEBRASKA AND FAR SOUTHERN SOUTH DAKOTA...

CITY           SKY/WX    TMP DP  RH WIND       PRES   REMARKS
WINNER         FAIR      35  29  78 SE22G31   30.21S WCI  23
VALENTINE      CLOUDY    34  26  72 S17G25    30.15F WCI  23
THEDFORD       CLOUDY    37  26  65 S24       30.19F WCI  25
AINSWORTH      CLOUDY    32  29  90 S21G28    30.18S WCI  20
O`NEILL        CLOUDY    32  27  81 SE15G23   30.28F WCI  22
ORD            CLOUDY    34  24  67 SE18      30.28F WCI  23
BROKEN BOW     CLOUDY    35  27  72 S16G26    30.25F WCI  25
VALENTINE NWR    N/A     31  27  83 S17         N/A  WCI  20
HALSEY           N/A     33  23  68 S10G20      N/A  WCI  25
BUTTE            N/A     30  27  88 SE16G24     N/A  WCI  19
CHAMBERS         N/A     32  27  81 S7          N/A  WCI  26
EWING            N/A     31  27  84 SE8G15      N/A  WCI  24
$$

...OBSERVATIONS IN SOUTHWEST NEBRASKA AND FAR NORTHEAST COLORADO...

CITY           SKY/WX    TMP DP  RH WIND       PRES   REMARKS
WRAY           CLOUDY    41  32  70 SE13G23   30.16F
HOLYOKE        PTSUNNY   43  32  65 SE23      30.13F
IMPERIAL       PTSUNNY   39  26  59 SE18G26   30.18F WCI  30
OGALLALA       CLOUDY    40  27  59 S16G25    30.17S WCI  32
NORTH PLATTE   CLOUDY    38  23  55 SE14G21   30.21F WCI  30
MCCOOK         CLOUDY    38  25  59 SE15      30.25F WCI  29
LEXINGTON      CLOUDY    37  24  59 SE14      30.28R WCI  28
STAPLETON        N/A     35  25  67 CALM        N/A
GOTHENBURG       N/A     35  23  62 SE10        N/A  WCI  27
CALLAWAY         N/A     33  25  72 S18         N/A  WCI  22
$$

...OBSERVATIONS IN CENTRAL LINCOLN COUNTY AREA...

CITY           SKY/WX    TMP DP  RH WIND       PRES   REMARKS
N.P. AIRPORT   CLOUDY    38  23  55 SE14G21   30.21F WCI  30
N.P. DOWNTOWN    N/A     36  25  65 SE7G18      N/A  WCI  30
N.P. SOUTHEAST   N/A     36  25  64 SE10G17     N/A  WCI  28
N.P. HILLCREST   N/A     36  26  65 S14G24      N/A  WCI  27
$$

...SOME OBSERVATIONS FROM AROUND THE REGION...

CITY           SKY/WX    TMP DP  RH WIND       PRES   REMARKS
DENVER         CLOUDY    41  32  70 W8        30.03S
LIMON          CLOUDY    39  31  72 S16       30.12F WCI  30
ASPEN          CLOUDY    51  25  36 CALM      30.09F
LARAMIE        CLOUDY    52  27  38 SE6       30.00F
GILLETTE       CLOUDY    39  33  79 S30       29.77F WCI  27
CHEYENNE       CLOUDY    36  28  73 S8        30.02F WCI  30
SCOTTSBLUFF    CLOUDY    43  28  55 SE15      30.03F
GRAND ISLAND   CLOUDY    35  24  64 SE13      30.34S WCI  26
OMAHA          LGT RAIN  34  21  59 SE12      30.42F WCI  25
SIOUX FALLS    CLOUDY    30  16  56 SE14      30.41S WCI  19
PIERRE         CLOUDY    31  27  85 SE23G29   30.16F WCI  18
RAPID CITY     CLOUDY    39  34  82 S35G44    29.91F WCI  26
BISMARCK       CLOUDY    31  21  66 SE22      30.13F WCI  18
KANSAS CITY    PTSUNNY   41  22  46 E15       30.36F
HILL CITY      CLOUDY    41  26  55 E8        30.28F
WICHITA        CLOUDY    49  26  41 E16       30.25F
DODGE CITY     CLOUDY    44  27  51 E9        30.24F
OKLAHOMA CITY  MOSUNNY   57  44  62 NE16      30.16R
DALLAS         CLOUDY    70  64  81 S14       30.09R
AMARILLO       CLOUDY    46  38  73 E9        30.21R
$$




USA.gov is the U.S. government's official web portal to all federal, state and local government web resources and services.